Time,TemperatureF,DewpointF,PressureIn,WindDirection,WindDirectionDegrees,WindSpeedMPH,WindSpeedGustMPH,Humidity,HourlyPrecipIn,Conditions,Clouds,dailyrainin,SoftwareType,DateUTC
2013-05-08 00:08:00,64.4,61.0,30.06,WSW,240,0.0,0.0,87,0.00,,,0.00,weatherlink.com 1.10,2013-05-08 04:08:00,
2013-05-08 00:23:00,63.7,61.0,30.06,WSW,240,0.0,0.0,89,0.00,,,0.00,weatherlink.com 1.10,2013-05-08 04:23:00,
2013-05-08 00:38:00,63.1,60.0,30.06,WSW,240,0.0,0.0,90,0.00,,,0.00,weatherlink.com 1.10,2013-05-08 04:38:00,
2013-05-08 00:53:00,62.9,60.0,30.06,WSW,240,0.0,0.0,91,0.00,,,0.00,weatherlink.com 1.10,2013-05-08 04:53:00,
2013-05-08 01:09:00,62.5,60.0,30.06,WSW,240,0.0,0.0,92,0.00,,,0.00,weatherlink.com 1.10,2013-05-08 05:09:00,
2013-05-08 01:24:00,62.1,60.0,30.06,WSW,241,0.0,0.0,92,0.00,,,0.00,weatherlink.com 1.10,2013-05-08 05:24:00,
2013-05-08 01:39:00,61.7,60.0,30.06,WSW,240,0.0,0.0,93,0.00,,,0.00,weatherlink.com 1.10,2013-05-08 05:39:00,
2013-05-08 01:54:00,61.7,60.0,30.05,WSW,240,0.0,0.0,94,0.00,,,0.00,weatherlink.com 1.10,2013-05-08 05:54:00,
2013-05-08 02:09:00,61.5,60.0,30.05,WSW,240,0.0,0.0,94,0.00,,,0.00,weatherlink.com 1.10,2013-05-08 06:09:00,
2013-05-08 02:24:00,61.0,59.0,30.05,WSW,240,0.0,0.0,94,0.00,,,0.00,weatherlink.com 1.10,2013-05-08 06:24:00,
2013-05-08 02:39:00,60.5,59.0,30.05,WSW,240,0.0,0.0,94,0.00,,,0.00,weatherlink.com 1.10,2013-05-08 06:39:00,
2013-05-08 02:54:00,60.1,58.0,30.05,WSW,240,0.0,0.0,94,0.00,,,0.00,weatherlink.com 1.10,2013-05-08 06:54:00,
2013-05-08 03:09:00,59.9,58.0,30.05,WSW,240,0.0,0.0,94,0.00,,,0.00,weatherlink.com 1.10,2013-05-08 07:09:00,
2013-05-08 03:24:00,59.7,58.0,30.05,WSW,240,0.0,0.0,95,0.00,,,0.00,weatherlink.com 1.10,2013-05-08 07:24:00,
2013-05-08 03:39:00,59.3,58.0,30.04,WSW,240,0.0,0.0,95,0.00,,,0.00,weatherlink.com 1.10,2013-05-08 07:39:00,
2013-05-08 03:54:00,59.5,58.0,30.04,WSW,240,0.0,0.0,96,0.00,,,0.00,weatherlink.com 1.10,2013-05-08 07:54:00,
2013-05-08 04:09:00,59.4,58.0,30.05,WSW,240,0.0,0.0,96,0.00,,,0.00,weatherlink.com 1.10,2013-05-08 08:09:00,
2013-05-08 04:24:00,59.4,58.0,30.05,WSW,240,0.0,0.0,96,0.00,,,0.00,weatherlink.com 1.10,2013-05-08 08:24:00,
2013-05-08 04:39:00,58.8,58.0,30.05,WSW,240,0.0,0.0,96,0.00,,,0.00,weatherlink.com 1.10,2013-05-08 08:39:00,
2013-05-08 04:54:00,58.6,58.0,30.05,WSW,240,0.0,0.0,96,0.00,,,0.00,weatherlink.com 1.10,2013-05-08 08:54:00,
2013-05-08 05:09:00,58.6,58.0,30.05,WSW,240,0.0,0.0,96,0.00,,,0.00,weatherlink.com 1.10,2013-05-08 09:09:00,
2013-05-08 05:24:00,58.6,58.0,30.05,WSW,240,0.0,0.0,97,0.00,,,0.00,weatherlink.com 1.10,2013-05-08 09:24:00,
2013-05-08 05:39:00,58.5,57.0,30.05,WSW,240,0.0,0.0,96,0.00,,,0.00,weatherlink.com 1.10,2013-05-08 09:39:00,
2013-05-08 05:54:00,58.4,57.0,30.05,WSW,240,0.0,0.0,96,0.00,,,0.00,weatherlink.com 1.10,2013-05-08 09:54:00,
2013-05-08 06:09:00,58.2,57.0,30.06,WSW,241,0.0,0.0,96,0.00,,,0.00,weatherlink.com 1.10,2013-05-08 10:09:00,
2013-05-08 06:24:00,58.0,57.0,30.06,WSW,240,0.0,0.0,96,0.00,,,0.00,weatherlink.com 1.10,2013-05-08 10:24:00,
2013-05-08 06:39:00,57.8,57.0,30.07,WSW,240,0.0,0.0,96,0.00,,,0.00,weatherlink.com 1.10,2013-05-08 10:39:00,
2013-05-08 06:54:00,57.5,56.0,30.07,WSW,240,0.0,0.0,96,0.00,,,0.00,weatherlink.com 1.10,2013-05-08 10:54:00,
2013-05-08 07:09:00,57.6,57.0,30.08,WSW,240,0.0,0.0,97,0.00,,,0.00,weatherlink.com 1.10,2013-05-08 11:09:00,
2013-05-08 07:24:00,58.2,57.0,30.09,WSW,240,0.0,0.0,97,0.00,,,0.00,weatherlink.com 1.10,2013-05-08 11:24:00,
2013-05-08 07:39:00,59.6,59.0,30.10,WSW,240,0.0,0.0,98,0.00,,,0.00,weatherlink.com 1.10,2013-05-08 11:39:00,
2013-05-08 07:54:00,62.4,62.0,30.10,WSW,240,0.0,0.0,98,0.00,,,0.00,weatherlink.com 1.10,2013-05-08 11:54:00,
2013-05-08 08:09:00,67.0,66.0,30.11,WSW,240,0.0,0.0,97,0.00,,,0.00,weatherlink.com 1.10,2013-05-08 12:09:00,
2013-05-08 08:24:00,69.3,64.0,30.11,NW,322,0.0,0.0,83,0.00,,,0.00,weatherlink.com 1.10,2013-05-08 12:24:00,
2013-05-08 08:39:00,71.3,62.0,30.11,SW,229,0.0,2.0,73,0.00,,,0.00,weatherlink.com 1.10,2013-05-08 12:39:00,
2013-05-08 08:55:00,72.9,63.0,30.12,WNW,302,0.0,2.0,70,0.00,,,0.00,weatherlink.com 1.10,2013-05-08 12:55:00,
2013-05-08 09:10:00,73.9,62.0,30.12,WSW,240,0.0,2.0,66,0.00,,,0.00,weatherlink.com 1.10,2013-05-08 13:10:00,
2013-05-08 09:25:00,73.9,61.0,30.12,WSW,255,3.0,5.0,64,0.00,,,0.00,weatherlink.com 1.10,2013-05-08 13:25:00,
2013-05-08 09:40:00,74.5,61.0,30.13,SW,215,0.0,2.0,63,0.00,,,0.00,weatherlink.com 1.10,2013-05-08 13:40:00,
2013-05-08 09:55:00,75.2,61.0,30.13,SW,233,0.0,3.0,62,0.00,,,0.00,weatherlink.com 1.10,2013-05-08 13:55:00,
2013-05-08 10:10:00,77.0,60.0,30.13,WSW,257,3.0,5.0,56,0.00,,,0.00,weatherlink.com 1.10,2013-05-08 14:10:00,
2013-05-08 10:25:00,76.8,60.0,30.13,WSW,256,2.0,7.0,57,0.00,,,0.00,weatherlink.com 1.10,2013-05-08 14:25:00,
2013-05-08 10:40:00,77.4,61.0,30.14,WNW,286,1.0,6.0,58,0.00,,,0.00,weatherlink.com 1.10,2013-05-08 14:40:00,
2013-05-08 10:55:00,77.6,60.0,30.14,NNW,342,0.0,5.0,55,0.00,,,0.00,weatherlink.com 1.10,2013-05-08 14:55:00,
2013-05-08 11:10:00,76.8,59.0,30.14,WSW,243,1.0,8.0,55,0.00,,,0.00,weatherlink.com 1.10,2013-05-08 15:10:00,
2013-05-08 11:25:00,77.7,62.0,30.14,ESE,110,1.0,5.0,58,0.00,,,0.00,weatherlink.com 1.10,2013-05-08 15:25:00,
2013-05-08 11:40:00,79.2,61.0,30.14,NW,320,4.0,6.0,54,0.00,,,0.00,weatherlink.com 1.10,2013-05-08 15:40:00,
2013-05-08 11:55:00,79.2,62.0,30.14,WSW,257,0.0,9.0,56,0.00,,,0.00,weatherlink.com 1.10,2013-05-08 15:55:00,
2013-05-08 12:10:00,79.1,58.0,30.14,WSW,250,0.0,5.0,49,0.00,,,0.00,weatherlink.com 1.10,2013-05-08 16:10:00,
2013-05-08 12:25:00,80.1,60.0,30.14,ESE,105,0.0,5.0,51,0.00,,,0.00,weatherlink.com 1.10,2013-05-08 16:25:00,
2013-05-08 12:40:00,79.6,60.0,30.13,ESE,102,3.0,7.0,52,0.00,,,0.00,weatherlink.com 1.10,2013-05-08 16:40:00,
2013-05-08 12:55:00,78.9,60.0,30.13,WSW,245,0.0,10.0,53,0.00,,,0.00,weatherlink.com 1.10,2013-05-08 16:55:00,
2013-05-08 13:10:00,79.2,59.0,30.13,NNE,13,2.0,6.0,50,0.00,,,0.00,weatherlink.com 1.10,2013-05-08 17:10:00,
2013-05-08 13:25:00,80.0,60.0,30.13,WNW,295,4.0,6.0,51,0.00,,,0.00,weatherlink.com 1.10,2013-05-08 17:25:00,
2013-05-08 13:40:00,79.7,61.0,30.13,SW,232,2.0,7.0,53,0.00,,,0.00,weatherlink.com 1.10,2013-05-08 17:40:00,
2013-05-08 13:55:00,79.5,61.0,30.12,South,191,3.0,7.0,53,0.00,,,0.00,weatherlink.com 1.10,2013-05-08 17:55:00,
2013-05-08 14:10:00,79.4,61.0,30.13,WNW,302,1.0,8.0,54,0.00,,,0.00,weatherlink.com 1.10,2013-05-08 18:10:00,
2013-05-08 14:25:00,78.9,62.0,30.13,West,278,3.0,7.0,56,0.00,,,0.00,weatherlink.com 1.10,2013-05-08 18:25:00,
2013-05-08 14:40:00,78.7,62.0,30.13,SW,215,3.0,6.0,56,0.00,,,0.00,weatherlink.com 1.10,2013-05-08 18:40:00,
2013-05-08 14:55:00,78.2,62.0,30.12,SW,231,2.0,9.0,58,0.00,,,0.00,weatherlink.com 1.10,2013-05-08 18:55:00,
2013-05-08 15:10:00,78.0,62.0,30.12,West,278,0.0,12.0,59,0.00,,,0.00,weatherlink.com 1.10,2013-05-08 19:10:00,
2013-05-08 15:25:00,79.8,62.0,30.12,West,264,0.0,6.0,55,0.00,,,0.00,weatherlink.com 1.10,2013-05-08 19:25:00,
2013-05-08 15:40:00,78.7,63.0,30.11,WSW,250,1.0,5.0,59,0.00,,,0.00,weatherlink.com 1.10,2013-05-08 19:40:00,
2013-05-08 15:55:00,77.2,63.0,30.11,West,266,2.0,10.0,61,0.00,,,0.00,weatherlink.com 1.10,2013-05-08 19:55:00,
2013-05-08 16:10:00,78.1,63.0,30.10,West,278,2.0,7.0,60,0.00,,,0.00,weatherlink.com 1.10,2013-05-08 20:10:00,
2013-05-08 16:25:00,77.9,63.0,30.10,SW,221,0.0,9.0,60,0.00,,,0.00,weatherlink.com 1.10,2013-05-08 20:25:00,
2013-05-08 16:40:00,77.8,62.0,30.10,West,264,1.0,8.0,59,0.00,,,0.00,weatherlink.com 1.10,2013-05-08 20:40:00,
2013-05-08 16:55:00,78.1,63.0,30.10,SW,221,2.0,7.0,61,0.00,,,0.00,weatherlink.com 1.10,2013-05-08 20:55:00,
2013-05-08 17:10:00,78.3,63.0,30.10,WNW,290,0.0,7.0,59,0.00,,,0.00,weatherlink.com 1.10,2013-05-08 21:10:00,
2013-05-08 17:25:00,77.5,62.0,30.10,WSW,238,2.0,10.0,60,0.00,,,0.00,weatherlink.com 1.10,2013-05-08 21:25:00,
2013-05-08 17:40:00,77.2,64.0,30.10,SW,236,0.0,10.0,64,0.00,,,0.00,weatherlink.com 1.10,2013-05-08 21:40:00,
2013-05-08 17:55:00,76.7,63.0,30.10,West,271,3.0,8.0,62,0.00,,,0.00,weatherlink.com 1.10,2013-05-08 21:55:00,
2013-05-08 18:10:00,76.2,64.0,30.10,West,262,1.0,9.0,65,0.00,,,0.00,weatherlink.com 1.10,2013-05-08 22:10:00,
2013-05-08 18:25:00,76.7,63.0,30.10,SW,236,0.0,4.0,63,0.00,,,0.00,weatherlink.com 1.10,2013-05-08 22:25:00,
2013-05-08 18:40:00,76.3,64.0,30.10,West,266,0.0,6.0,65,0.00,,,0.00,weatherlink.com 1.10,2013-05-08 22:40:00,
2013-05-08 18:55:00,75.1,62.0,30.10,WSW,240,2.0,5.0,65,0.00,,,0.00,weatherlink.com 1.10,2013-05-08 22:55:00,
2013-05-08 19:10:00,73.7,63.0,30.10,WSW,247,2.0,7.0,69,0.00,,,0.00,weatherlink.com 1.10,2013-05-08 23:10:00,
2013-05-08 19:25:00,73.0,63.0,30.10,South,190,2.0,7.0,71,0.00,,,0.00,weatherlink.com 1.10,2013-05-08 23:25:00,
2013-05-08 19:40:00,72.4,63.0,30.11,SW,226,4.0,6.0,72,0.00,,,0.00,weatherlink.com 1.10,2013-05-08 23:40:00,
2013-05-08 19:55:00,72.0,63.0,30.11,WNW,302,3.0,5.0,73,0.00,,,0.00,weatherlink.com 1.10,2013-05-08 23:55:00,
2013-05-08 20:10:00,71.6,63.0,30.11,West,263,1.0,4.0,74,0.00,,,0.00,weatherlink.com 1.10,2013-05-09 00:10:00,
2013-05-08 20:25:00,71.1,63.0,30.11,SSW,211,0.0,4.0,75,0.00,,,0.00,weatherlink.com 1.10,2013-05-09 00:25:00,
2013-05-08 20:40:00,70.9,63.0,30.11,SW,228,0.0,3.0,76,0.00,,,0.00,weatherlink.com 1.10,2013-05-09 00:40:00,
2013-05-08 20:55:00,70.6,63.0,30.12,WSW,242,0.0,2.0,77,0.00,,,0.00,weatherlink.com 1.10,2013-05-09 00:55:00,
2013-05-08 21:10:00,70.0,63.0,30.12,WSW,255,0.0,0.0,78,0.00,,,0.00,weatherlink.com 1.10,2013-05-09 01:10:00,
2013-05-08 21:25:00,69.5,63.0,30.12,WSW,243,0.0,0.0,79,0.00,,,0.00,weatherlink.com 1.10,2013-05-09 01:25:00,
2013-05-08 21:40:00,68.6,63.0,30.12,WSW,245,0.0,0.0,81,0.00,,,0.00,weatherlink.com 1.10,2013-05-09 01:40:00,
2013-05-08 21:55:00,67.8,62.0,30.12,WSW,243,0.0,0.0,82,0.00,,,0.00,weatherlink.com 1.10,2013-05-09 01:55:00,
2013-05-08 22:10:00,67.0,62.0,30.13,WSW,243,0.0,0.0,84,0.00,,,0.00,weatherlink.com 1.10,2013-05-09 02:10:00,
2013-05-08 22:25:00,66.3,62.0,30.13,WSW,243,0.0,0.0,86,0.00,,,0.00,weatherlink.com 1.10,2013-05-09 02:25:00,
2013-05-08 22:40:00,65.9,62.0,30.13,WSW,243,0.0,0.0,87,0.00,,,0.00,weatherlink.com 1.10,2013-05-09 02:40:00,
2013-05-08 22:55:00,65.6,62.0,30.14,WSW,243,0.0,0.0,88,0.00,,,0.00,weatherlink.com 1.10,2013-05-09 02:55:00,
2013-05-08 23:10:00,65.1,62.0,30.14,WSW,243,0.0,0.0,88,0.00,,,0.00,weatherlink.com 1.10,2013-05-09 03:10:00,
2013-05-08 23:25:00,64.6,61.0,30.14,WSW,243,0.0,0.0,89,0.00,,,0.00,weatherlink.com 1.10,2013-05-09 03:25:00,
2013-05-08 23:40:00,64.4,62.0,30.14,WSW,243,0.0,0.0,90,0.00,,,0.00,weatherlink.com 1.10,2013-05-09 03:40:00,
2013-05-08 23:55:00,63.7,61.0,30.14,WSW,243,0.0,0.0,90,0.00,,,0.00,weatherlink.com 1.10,2013-05-09 03:55:00,